TimeMST,TemperatureF,Dew PointF,Humidity,Sea Level PressureIn,VisibilityMPH,Wind Direction,Wind SpeedMPH,Gust SpeedMPH,PrecipitationIn,Events,Conditions,WindDirDegrees,DateUTC
12:15 AM,28.0,17.1,63,29.86,-9999.0,SW,5.8,-,N/A,,Overcast,230,2012-11-11 07:15:00
12:35 AM,28.0,16.3,62,29.86,-9999.0,WSW,4.6,-,N/A,,Overcast,250,2012-11-11 07:35:00
12:55 AM,27.3,17.6,67,29.86,-9999.0,NW,6.9,-,N/A,,Overcast,310,2012-11-11 07:55:00
1:15 AM,27.5,17.8,67,29.86,-9999.0,WSW,6.9,-,N/A,,Overcast,250,2012-11-11 08:15:00
1:35 AM,27.5,16.9,64,29.87,-9999.0,West,8.1,-,N/A,,Overcast,260,2012-11-11 08:35:00
1:55 AM,28.2,15.6,59,29.87,-9999.0,West,5.8,-,N/A,,Scattered Clouds,260,2012-11-11 08:55:00
2:15 AM,27.7,15.4,60,29.87,-9999.0,NW,10.4,-,N/A,,Mostly Cloudy,320,2012-11-11 09:15:00
2:35 AM,25.7,18.0,73,29.88,-9999.0,WNW,6.9,-,N/A,,Overcast,300,2012-11-11 09:35:00
2:55 AM,25.5,17.6,72,29.88,-9999.0,WNW,12.7,17.3,N/A,,Overcast,300,2012-11-11 09:55:00
3:15 AM,25.7,17.1,70,29.88,-9999.0,West,12.7,16.1,N/A,,Overcast,260,2012-11-11 10:15:00
3:35 AM,26.6,14.5,60,29.89,-9999.0,West,13.8,20.7,N/A,,Overcast,280,2012-11-11 10:35:00
3:55 AM,26.1,17.6,70,29.90,-9999.0,WSW,9.2,-,N/A,,Overcast,250,2012-11-11 10:55:00
4:35 AM,24.8,17.8,75,29.90,-9999.0,West,20.7,27.6,N/A,,Scattered Clouds,270,2012-11-11 11:35:00
5:15 AM,25.0,14.5,65,29.90,-9999.0,West,16.1,23.0,N/A,,Clear,270,2012-11-11 12:15:00
5:35 AM,25.2,12.7,59,29.91,-9999.0,West,18.4,24.2,N/A,,Clear,270,2012-11-11 12:35:00
5:55 AM,25.3,11.8,57,29.92,-9999.0,West,15.0,-,N/A,,Clear,270,2012-11-11 12:55:00
6:35 AM,24.8,10.4,54,29.95,-9999.0,West,16.1,20.7,N/A,,Clear,280,2012-11-11 13:35:00
7:15 AM,24.8,9.3,52,29.96,-9999.0,WSW,16.1,21.9,N/A,,Clear,250,2012-11-11 14:15:00
7:35 AM,25.5,8.2,48,29.96,-9999.0,West,23.0,28.8,N/A,,Clear,270,2012-11-11 14:35:00
7:55 AM,25.5,9.1,50,29.97,-9999.0,West,18.4,26.5,N/A,,Clear,280,2012-11-11 14:55:00
8:15 AM,26.1,7.7,46,29.98,-9999.0,West,21.9,34.5,N/A,,Clear,280,2012-11-11 15:15:00
8:35 AM,26.4,7.7,45,29.99,-9999.0,West,25.3,34.5,N/A,,Clear,270,2012-11-11 15:35:00
8:55 AM,27.1,8.6,46,30.00,-9999.0,West,17.3,25.3,N/A,,Clear,280,2012-11-11 15:55:00
9:15 AM,27.5,8.1,44,30.00,-9999.0,West,15.0,26.5,N/A,,Clear,270,2012-11-11 16:15:00
9:35 AM,28.6,7.3,41,30.01,-9999.0,West,18.4,31.1,N/A,,Clear,280,2012-11-11 16:35:00
10:15 AM,29.1,7.7,41,30.03,-9999.0,West,23.0,31.1,N/A,,Clear,270,2012-11-11 17:15:00
10:35 AM,29.1,8.4,42,30.04,-9999.0,West,20.7,32.2,N/A,,Clear,270,2012-11-11 17:35:00
10:55 AM,30.0,7.9,39,30.03,-9999.0,WNW,16.1,25.3,N/A,,Clear,290,2012-11-11 17:55:00
11:15 AM,30.7,3.2,31,30.04,-9999.0,West,23.0,33.4,N/A,,Clear,270,2012-11-11 18:15:00
11:35 AM,32.0,1.8,28,30.04,-9999.0,West,19.6,32.2,N/A,,Clear,260,2012-11-11 18:35:00
11:55 AM,32.2,1.8,28,30.04,-9999.0,West,18.4,32.2,N/A,,Clear,270,2012-11-11 18:55:00
12:15 PM,31.6,0.3,26,30.05,-9999.0,WNW,13.8,24.2,N/A,,Clear,290,2012-11-11 19:15:00
12:35 PM,31.6,-2.9,23,30.05,-9999.0,West,15.0,20.7,N/A,,Scattered Clouds,270,2012-11-11 19:35:00
12:55 PM,32.5,-1.7,23,30.06,-9999.0,West,31.1,36.8,N/A,,Mostly Cloudy,260,2012-11-11 19:55:00
1:15 PM,30.7,-1.3,25,30.06,-9999.0,West,26.5,29.9,N/A,,Mostly Cloudy,270,2012-11-11 20:15:00
1:35 PM,30.7,1.4,29,30.07,-9999.0,West,18.4,32.2,N/A,,Mostly Cloudy,270,2012-11-11 20:35:00
1:55 PM,31.8,-2.7,23,30.08,-9999.0,West,19.6,27.6,N/A,,Mostly Cloudy,260,2012-11-11 20:55:00
2:15 PM,32.0,-0.4,25,30.08,-9999.0,WSW,15.0,29.9,N/A,,Scattered Clouds,250,2012-11-11 21:15:00
2:35 PM,31.5,1.8,28,30.09,-9999.0,West,21.9,29.9,N/A,,Scattered Clouds,270,2012-11-11 21:35:00
2:55 PM,30.7,0.3,27,30.11,-9999.0,WNW,16.1,27.6,N/A,,Scattered Clouds,290,2012-11-11 21:55:00
3:15 PM,30.2,-2.9,24,30.12,-9999.0,West,17.3,25.3,N/A,,Scattered Clouds,280,2012-11-11 22:15:00
3:35 PM,30.4,-1.7,25,30.14,-9999.0,West,25.3,32.2,N/A,,Scattered Clouds,270,2012-11-11 22:35:00
3:55 PM,30.4,-2.0,25,30.14,-9999.0,West,15.0,21.9,N/A,,Scattered Clouds,280,2012-11-11 22:55:00
4:15 PM,28.9,2.7,33,30.15,-9999.0,West,20.7,31.1,N/A,,Mostly Cloudy,270,2012-11-11 23:15:00
4:35 PM,28.4,0.9,31,30.16,-9999.0,WNW,8.1,20.7,N/A,,Scattered Clouds,300,2012-11-11 23:35:00
4:55 PM,28.0,3.0,34,30.17,-9999.0,WNW,15.0,20.7,N/A,,Scattered Clouds,290,2012-11-11 23:55:00
5:15 PM,28.2,2.3,33,30.18,-9999.0,WNW,6.9,-,N/A,,Clear,290,2012-11-12 00:15:00
5:35 PM,28.2,0.7,31,30.19,-9999.0,WNW,8.1,-,N/A,,Clear,290,2012-11-12 00:35:00
5:55 PM,27.3,-0.2,31,30.20,-9999.0,WNW,3.5,-,N/A,,Clear,300,2012-11-12 00:55:00
6:15 PM,27.5,0.1,31,30.22,-9999.0,WSW,8.1,-,N/A,,Clear,250,2012-11-12 01:15:00
6:35 PM,26.8,1.4,34,30.22,-9999.0,NW,4.6,-,N/A,,Clear,310,2012-11-12 01:35:00
6:55 PM,27.0,1.2,33,30.23,-9999.0,WNW,3.5,17.3,N/A,,Clear,300,2012-11-12 01:55:00
7:15 PM,26.6,1.0,33,30.23,-9999.0,WNW,3.5,-,N/A,,Clear,300,2012-11-12 02:15:00
7:35 PM,27.3,-0.8,30,30.24,-9999.0,Calm,Calm,-,N/A,,Clear,0,2012-11-12 02:35:00
7:55 PM,26.1,-0.2,32,30.24,-9999.0,Calm,Calm,-,N/A,,Clear,0,2012-11-12 02:55:00
8:15 PM,26.6,-0.2,31,30.25,-9999.0,Calm,Calm,-,N/A,,Clear,0,2012-11-12 03:15:00
8:35 PM,25.7,-0.0,33,30.26,-9999.0,Calm,Calm,-,N/A,,Clear,0,2012-11-12 03:35:00
8:55 PM,25.9,0.5,33,30.27,-9999.0,Calm,Calm,-,N/A,,Clear,0,2012-11-12 03:55:00
9:15 PM,24.6,0.9,36,30.28,-9999.0,ESE,4.6,-,N/A,,Clear,120,2012-11-12 04:15:00
9:35 PM,25.3,0.9,35,30.28,-9999.0,ESE,5.8,-,N/A,,Clear,120,2012-11-12 04:35:00
9:55 PM,25.0,1.0,36,30.29,-9999.0,Calm,Calm,-,N/A,,Clear,0,2012-11-12 04:55:00
10:15 PM,24.8,3.0,39,30.29,-9999.0,East,3.5,-,N/A,,Clear,100,2012-11-12 05:15:00
10:35 PM,24.4,1.4,37,30.30,-9999.0,Calm,Calm,-,N/A,,Clear,0,2012-11-12 05:35:00
10:55 PM,24.6,1.8,37,30.30,-9999.0,Calm,Calm,-,N/A,,Clear,0,2012-11-12 05:55:00
11:15 PM,24.1,2.5,39,30.31,-9999.0,Calm,Calm,-,N/A,,Clear,0,2012-11-12 06:15:00
11:55 PM,22.8,2.8,42,30.32,-9999.0,NW,3.5,-,N/A,,Clear,310,2012-11-12 06:55:00